Simultaneous Nadir Overpasses (SNOs) Predictions

Prediction of SNOs between GOES-16 and TERRA Satellite Orbit:

Table of predicted SNOs for the next 14.0 days since TLE Epoch: 1/4/2020
Index Date Time (GOES-16) GOES-16 Lat,Lon TERRA Lat,Lon Distance(km) Time Diff (sec)
1 01/04/2020 03:47:54 -0.01, -75.19 0.00, -79.14 439.23 80
2 01/05/2020 15:14:05 0.02, -75.20 -0.93, -70.82 498.70 80
3 01/06/2020 03:32:49 -0.02, -75.20 -0.18, -76.01 92.33 80
4 01/08/2020 03:23:17 -0.02, -75.21 0.43, -73.05 244.79 80
5 01/08/2020 15:41:53 0.01, -75.21 0.64, -78.21 340.72 80
6 01/10/2020 15:29:41 0.02, -75.22 0.03, -75.25 3.51 80
7 01/12/2020 15:20:09 0.03, -75.24 -0.57, -72.29 334.48 80
8 01/13/2020 03:38:54 -0.02, -75.23 -0.48, -77.49 256.22 80
9 01/15/2020 03:29:22 -0.03, -75.25 0.13, -74.53 82.35 80
10 01/17/2020 03:17:10 -0.03, -75.28 0.74, -71.57 421.52 80
11 01/17/2020 15:35:46 0.02, -75.29 0.33, -76.73 163.59 80




NCC Satellite Simultaneous Nadir Overpasses (SNOs) Prediction Service
